Weather History for Cozumel, Mexico

Change the Weather History Date:

Friday, January 4, 2013

  Actual Average Record
Temperature  
Mean Temperature 71 °F -  
Max Temperature 78 °F 80 °F 86 °F (1998)
Min Temperature 64 °F 69 °F 55 °F (2011)
Cooling Degree Days 6    
Growing Degree Days 21 (Base 50)    
Moisture  
Dew Point 65 °F    
Average Humidity 79    
Maximum Humidity 94    
Minimum Humidity 61    
Precipitation  
Precipitation 0.00 in - - ()
Sea Level Pressure  
Sea Level Pressure 30.10 in    
Wind  
Wind Speed 4 mph ()    
Max Wind Speed 14 mph    
Max Gust Speed -    
Visibility 7.5 miles    
Events      
Averages and records for this station are not official NWS values.
T = Trace of Precipitation, MM = Missing Value Source: Averaged Metar Reports

Daily Weather History Graph

Daily Weather History Graph

Search for Another Location

Airport:

Trip Planner

Search our weather history database for the weather conditions in past years. The results will help you decide how hot, cold, wet, or windy it might be!

Date:

Astronomy

Jan. 04, 2013 Rise Set
Actual Time 6:24 AM CST 5:20 PM CST
Civil Twilight 6:00 AM CST 5:44 PM CST
Nautical Twilight 5:33 AM CST 6:12 PM CST
Astronomical Twilight 5:06 AM CST 6:39 PM CST
Moon 11:57 PM CST (1/4) 11:05 AM CST (1/4)
Length of Visible Light 11h 44m
Length of Day
10h 56m
Waning Gibbous, 55% of the Moon is Illuminated
Jan 4
Waning Gibbous
Jan 4
Last Quarter
Jan 11
New
Jan 18
First Quarter
Jan 26
Full

Hourly Weather History & Observations

Time (CST) Temp. Dew Point Humidity Pressure Visibility Wind Dir Wind Speed Gust Speed Precip Events Conditions
12:46 AM 68.0 °F 64.4 °F 88% 30.07 in 7.0 mi East 4.6 mph - N/A   Partly Cloudy
1:46 AM 68.0 °F 64.4 °F 88% 30.06 in 7.0 mi Calm Calm - N/A   Partly Cloudy
2:46 AM 68.0 °F 62.6 °F 83% 30.08 in 7.0 mi Calm Calm - N/A   Partly Cloudy
3:40 AM 66.2 °F 62.6 °F 88% 30.06 in 7.0 mi Calm Calm - N/A   Clear
4:45 AM 68.0 °F 64.4 °F 88% 30.05 in 7.0 mi East 4.6 mph - N/A   Clear
5:49 AM 68.0 °F 64.4 °F 88% 30.03 in 7.0 mi Calm Calm - N/A   Partly Cloudy
6:43 AM 64.4 °F 62.6 °F 94% 30.09 in 8.0 mi Calm Calm - N/A   Scattered Clouds
7:45 AM 69.8 °F 68.0 °F 94% 30.11 in 8.0 mi East 5.8 mph - N/A   Scattered Clouds
8:49 AM 77.0 °F 68.0 °F 74% 30.16 in 8.0 mi East 5.8 mph - N/A   Scattered Clouds
9:51 AM 77.0 °F 68.0 °F 74% 30.13 in 8.0 mi ENE 8.1 mph - N/A   Scattered Clouds
10:48 AM 77.0 °F 66.2 °F 69% 30.12 in 8.0 mi ENE 9.2 mph - N/A   Mostly Cloudy
11:55 AM 77.0 °F 66.2 °F 69% 30.09 in 8.0 mi ENE 9.2 mph - N/A   Mostly Cloudy
12:47 PM 77.0 °F 66.2 °F 69% 30.09 in 8.0 mi ENE 9.2 mph - N/A   Mostly Cloudy
1:52 PM 78.8 °F 66.2 °F 65% 30.07 in 8.0 mi ENE 8.1 mph - N/A   Mostly Cloudy
2:45 PM 78.8 °F 64.4 °F 61% 30.09 in 8.0 mi East 13.8 mph - N/A   Scattered Clouds
3:46 PM 78.8 °F 66.2 °F 65% 30.07 in 8.0 mi ENE 6.9 mph - N/A   Scattered Clouds
4:42 PM 75.2 °F 66.2 °F 73% 30.09 in 8.0 mi East 5.8 mph - N/A   Scattered Clouds
5:41 PM 71.6 °F 64.4 °F 78% 30.07 in 8.0 mi East 3.5 mph - N/A   Partly Cloudy
6:40 PM 69.8 °F 64.4 °F 83% 30.11 in 8.0 mi East 4.6 mph - N/A   Partly Cloudy
7:45 PM 71.6 °F 66.2 °F 83% 30.13 in 7.0 mi East 4.6 mph - N/A   Partly Cloudy
8:47 PM 71.6 °F 64.4 °F 78% 30.16 in 7.0 mi East 4.6 mph - N/A   Partly Cloudy
9:42 PM 69.8 °F 64.4 °F 83% 30.14 in 7.0 mi East 4.6 mph - N/A   Scattered Clouds
10:46 PM 71.6 °F 64.4 °F 78% 30.13 in 7.0 mi East 6.9 mph - N/A   Scattered Clouds
11:42 PM 71.6 °F 64.4 °F 78% 30.09 in 7.0 mi East 5.8 mph - N/A   Scattered Clouds